Globalstar M087

operational
NORAD ID: 52888 Int'l Des: 2022-064 Owner: GLOBL Country: US Constellation: globalstar
LEOCIRCULAR

Über Globalstar M087

Beschreibung wird geladen...

Live-Position

3D-Globus wird geladen...

Nächste Überflüge

Höhenverlauf

Altitude vs Time

uPlot chart will show altitude changes over time

Zweizeiliger Elementsatz

1 52888U 22064A 25298.77751010 -.00000096 00000-0 43949-4 0 9998
2 52888 52.0007 56.0976 0000837 122.0946 238.0002 12.62289534161535
Epoch: 25. Okt. 2025 • Age: 13 hours

Aktueller Status

Höhe 1414.4 km
Geschwindigkeit 7.16 km/s
Subsatellitenpunkt 25.02°N, 81.3°W
Startdatum 19. Juni 2022
Alter 3.3 years
Typ communications

Technische Details

Klassifizierung Payload
Masse 715.00 kg
Trockenmasse 500.00 kg
Gesamtmasse 715.00 kg
Länge 4.00 m
Durchmesser 2.00 m
Spannweite 12.00 m
Form Trap Cyl + 2 Pan
Hersteller THALR
Bus-Typ Prisma
Phasenstatus In Orbit
Besitzer/Staat GLOBL/US

Große Konstellationen

Loading constellations...